W1JCN Weather Reports


Display with metric or nautical units.
time (UTC)temp
F
wind
direction
speed
MPH
gust
MPH
rain 1hr
in
rain 24hr
in
rain mn
in
humidity
%
barometer
mb
20260505112944 51 189 1.0 4.0 0.00 0.00 0.00 78 1006.5
20260505112044 50 209 0.0 3.0 0.00 0.00 0.00 80 1006.3
20260505111144 50 193 0.0 3.0 0.00 0.00 0.00 80 1006.1
20260505110244 49 186 0.0 2.0 0.00 0.00 0.00 81 1006.1
20260505101744 47 171 0.0 2.0 0.00 0.00 0.00 83 1005.6
20260505100844 47 178 0.0 3.0 0.00 0.00 0.00 83 1005.7
20260505095944 47 0 0.0 0.0 0.00 0.00 0.00 83 1005.8
20260505095044 47 0 0.0 0.0 0.00 0.00 0.00 82 1005.7
20260505094144 47 0 0.0 0.0 0.00 0.00 0.00 82 1005.7
20260505093244 48 184 0.0 2.0 0.00 0.00 0.00 82 1005.8
20260505091444 48 0 0.0 0.0 0.00 0.00 0.00 82 1006.0
20260505090544 48 0 0.0 0.0 0.00 0.00 0.00 81 1006.0
20260505083843 48 0 0.0 0.0 0.00 0.00 0.00 81 1006.1
20260505082944 48 184 0.0 5.0 0.00 0.00 0.00 81 1006.1
20260505082044 48 182 0.0 2.0 0.00 0.00 0.00 80 1006.0
20260505080244 48 186 0.0 2.0 0.00 0.00 0.00 79 1006.1
20260505075343 49 198 0.0 6.0 0.00 0.00 0.00 79 1006.1
20260505074444 49 198 0.0 6.0 0.00 0.00 0.00 79 1006.1
20260505073544 49 192 0.0 4.0 0.00 0.00 0.00 79 1006.1
20260505072644 49 194 0.0 3.0 0.00 0.00 0.00 80 1006.1
20260505071743 48 191 0.0 2.0 0.00 0.00 0.00 80 1006.1
20260505065944 48 188 0.0 1.0 0.00 0.00 0.00 81 1006.3
20260505065043 48 187 0.0 1.0 0.00 0.00 0.00 80 1006.4
20260505063243 48 206 0.0 2.0 0.00 0.00 0.00 80 1006.4
20260505062343 48 206 0.0 1.0 0.00 0.00 0.00 79 1006.4
20260505061443 48 0 0.0 0.0 0.00 0.00 0.00 79 1006.5
20260505060543 48 206 0.0 2.0 0.00 0.00 0.00 79 1006.6
20260505055643 48 0 0.0 0.0 0.00 0.00 0.00 78 1006.6
20260505054743 49 0 0.0 0.0 0.00 0.00 0.00 77 1006.6
20260505053843 49 0 0.0 0.0 0.00 0.00 0.00 76 1006.6
20260505052943 50 196 0.0 1.0 0.00 0.00 0.00 76 1006.6
20260505052043 50 204 0.0 3.0 0.00 0.00 0.00 76 1006.7
20260505051143 50 194 0.0 4.0 0.00 0.00 0.00 75 1006.7
20260505050243 50 199 0.0 2.0 0.00 0.00 0.00 74 1006.9
20260505041743 51 196 0.0 2.0 0.00 0.00 0.00 73 1006.7
20260505040843 51 148 0.0 4.0 0.00 0.00 0.00 72 1006.7
20260505035943 51 177 1.0 4.0 0.00 0.00 0.00 72 1006.6
20260505035043 51 189 0.0 4.0 0.00 0.00 0.00 71 1006.5
20260505034143 52 181 0.0 3.0 0.00 0.00 0.00 71 1006.5
20260505031443 52 192 0.0 4.0 0.00 0.00 0.00 68 1006.4
20260505030543 53 165 0.0 3.0 0.00 0.00 0.00 67 1006.4
20260505023843 53 199 0.0 2.0 0.00 0.00 0.00 65 1006.3
20260505022943 53 189 0.0 1.0 0.00 0.00 0.00 65 1006.3
20260505022043 53 190 0.0 4.0 0.00 0.00 0.00 66 1006.2
20260505021143 52 172 0.0 5.0 0.00 0.00 0.00 66 1006.1
20260505020243 52 167 0.0 4.0 0.00 0.00 0.00 68 1006.1
20260505015343 51 0 0.0 0.0 0.00 0.00 0.00 71 1005.9
20260505014443 52 0 0.0 0.0 0.00 0.00 0.00 70 1006.0
20260505013543 52 0 0.0 0.0 0.00 0.00 0.00 69 1005.9
20260505012643 52 166 0.0 1.0 0.00 0.00 0.00 69 1005.9
20260505010843 53 0 0.0 0.0 0.00 0.00 0.00 67 1005.8
20260505005043 54 0 0.0 0.0 0.00 0.00 0.00 64 1005.7
20260505004143 55 0 0.0 0.0 0.00 0.00 0.00 62 1005.6
20260505002343 57 0 0.0 0.0 0.00 0.00 0.00 60 1005.3
20260505001443 58 0 0.0 0.0 0.00 0.00 0.00 58 1005.2
20260505000543 59 0 0.0 0.0 0.00 0.00 0.00 55 1005.1
20260504235643 60 0 0.0 0.0 0.00 0.00 0.00 54 1004.8
20260504234743 60 0 0.0 0.0 0.00 0.00 0.00 51 1004.8
20260504232943 61 196 0.0 4.0 0.00 0.00 0.00 47 1004.5
20260504231143 62 259 1.0 6.0 0.00 0.00 0.00 47 1004.3
20260504230242 63 232 0.0 2.0 0.00 0.00 0.00 45 1004.2
20260504225343 63 252 0.0 3.0 0.00 0.00 0.00 47 1004.0
20260504224443 63 258 1.0 4.0 0.00 0.00 0.00 43 1004.1
20260504223542 63 256 1.0 4.0 0.00 0.00 0.00 43 1004.1
20260504221742 64 230 1.0 7.0 0.00 0.00 0.00 42 1003.8
20260504220843 64 219 2.0 5.0 0.00 0.00 0.00 43 1003.8
20260504215943 64 232 1.0 6.0 0.00 0.00 0.00 42 1003.6
20260504215042 64 221 1.0 9.0 0.00 0.00 0.00 42 1003.7
20260504214143 65 234 1.0 4.0 0.00 0.00 0.00 42 1003.8
20260504212342 65 250 1.0 4.0 0.00 0.00 0.00 43 1003.9
20260504210542 66 259 2.0 8.0 0.00 0.00 0.00 42 1004.0
20260504205642 66 258 2.0 9.0 0.00 0.00 0.00 40 1004.0
20260504204742 66 234 2.0 7.0 0.00 0.00 0.00 40 1004.0
20260504202942 66 228 1.0 8.0 0.00 0.00 0.00 42 1004.0
20260504202042 66 228 2.0 8.0 0.00 0.00 0.00 42 1004.0
20260504201142 66 253 2.0 6.0 0.00 0.00 0.00 41 1004.0
20260504200242 65 280 2.0 7.0 0.00 0.00 0.00 40 1004.1
20260504195342 64 267 1.0 7.0 0.00 0.00 0.00 40 1004.2
20260504194442 64 259 2.0 7.0 0.00 0.00 0.00 43 1004.3
20260504192642 63 229 1.0 11.0 0.00 0.00 0.00 44 1004.5
20260504191742 63 245 1.0 11.0 0.00 0.00 0.00 45 1004.4
20260504184142 62 227 2.0 7.0 0.00 0.00 0.00 43 1004.6
20260504183242 62 240 1.0 7.0 0.00 0.00 0.00 43 1004.6
20260504182342 62 232 1.0 6.0 0.00 0.00 0.00 47 1004.4
20260504181442 62 231 1.0 6.0 0.00 0.00 0.00 44 1004.5
20260504175642 62 263 1.0 9.0 0.00 0.00 0.00 45 1004.6
20260504174742 63 258 2.0 7.0 0.00 0.00 0.00 43 1004.8
20260504173842 63 256 2.0 13.0 0.00 0.00 0.00 43 1004.6
20260504172942 64 241 2.0 9.0 0.00 0.00 0.00 45 1004.6
20260504172042 63 214 2.0 8.0 0.00 0.00 0.00 45 1004.5
20260504170242 63 244 2.0 9.0 0.00 0.00 0.00 46 1004.6
20260504141142 56 217 1.0 6.0 0.00 0.00 0.00 55 1005.5
20260504140242 55 230 2.0 7.0 0.00 0.00 0.00 55 1005.5